Regional Weather Roundup
Issued by NWS

Home | Current Version | Previous Version | Graphics & Text | Print | Product List | Glossary On
Versions: 1 2 3 4 5 6 7 8 9 10 11 12 13 14 15 16 17 18 19 20 21 22 23 24 25 26 27 28 29 30 31 32 33 34 35 36 37 38 39 40 41 42 43 44 45 46 47 48 49 50
088
ASUS43 KMPX 191210
RWRMN
WEATHER ROUNDUP FOR MINNESOTA
NATIONAL WEATHER SERVICE TWIN CITIES/CHANHASSEN MN
700 AM CDT THU OCT 19 2017


NOTE: "FAIR" INDICATES FEW OR NO CLOUDS BELOW 12,000 FEET WITH NO
SIGNIFICANT WEATHER AND/OR OBSTRUCTIONS TO VISIBILITY. N/A MEANS
CURRENT SKY AND/OR WEATHER CONDITIONS ARE NOT AVAILABLE.

MNZ060>063-068>070-191300-
   Twin Cities Metro

CITY           SKY/WX    TMP DP  RH WIND       PRES   REMARKS
TWIN CITIES    CLOUDY    46  32  58 CALM      30.05S
6HR MIN TEMP:  45; 6HR MAX TEMP:  52;

ST PAUL        CLOUDY    41  39  93 CALM      30.06S
CRYSTAL        CLOUDY    39  30  70 CALM      30.03S
BLAINE         PTCLDY    45  34  65 CALM      30.04S
LAKEVILLE      CLOUDY    36  34  93 CALM      30.05S
EDEN PRAIRIE   CLOUDY    41  37  86 S5        30.04S
6HR MIN TEMP:  40; 6HR MAX TEMP:  52;

SOUTH ST PAUL  CLOUDY    40  33  75 CALM      30.05S
LAKE ELMO      FAIR      37  34  87 CALM      30.06S
$$
MNZ001>005-007-008-013>017-022>024-027-028-191300-
   Northwest Minnesota

CITY           SKY/WX    TMP DP  RH WIND       PRES   REMARKS
BEMIDJI        CLOUDY    33  25  70 CALM      29.93F
HALLOCK        CLOUDY    32  19  59 SE9       29.87S WCI  24
ROSEAU         MOCLDY    37  27  65 SW5       29.87F
WARROAD        CLOUDY    37  27  65 SW3       29.88S
THIEF RVR FALL CLOUDY    34  24  67 S7        29.91S WCI  28
CROOKSTON      CLOUDY    34  25  69 S7        29.91F WCI  28
FOSSTON        CLOUDY    34  25  69 S8        29.93F WCI  27
DETROIT LAKES  CLOUDY    43  32  65 CALM      29.94F
MOORHEAD       CLOUDY    39  30  70 SE5       29.93F
PARK RAPIDS    CLOUDY    37  28  70 CALM      29.96R
MAHNOMEN       FAIR      39  28  63 S6        29.93F
$$
MNZ006-009>011-018-025>026-191300-
   North Central Minnesota

CITY           SKY/WX    TMP DP  RH WIND       PRES   REMARKS
BAUDETTE       PTCLDY    39  23  52 W7        29.88S
FLAG ISLAND    PTCLDY    39  21  48 W10       29.84S
INTL FALLS     CLOUDY    39  22  50 W7        29.88R
6HR MIN TEMP:  39; 6HR MAX TEMP:  47;

WASKISH        MOCLDY    46  34  61 SW10      29.91S
BIG FORK       CLOUDY    37  25  60 SW5       29.93R
LONGVILLE      CLOUDY    37  28  70 SW3       29.95F
GRAND RAPIDS   PTCLDY    44  27  51 SW6       29.97R
CRANE LAKE     PTCLDY    43  19  39 W3        29.90R
ORR            CLOUDY    41  21  45 SW6       29.89R
COOK           PTCLDY    41  23  48 SW5       29.92R
WALKER         FAIR      42  24  50 CALM      29.95S
$$
MNZ012-019>021-037-191300-
   Northeast Minnesota

CITY           SKY/WX    TMP DP  RH WIND       PRES   REMARKS
DULUTH         CLOUDY    40  26  57 W12       29.95R
6HR MIN TEMP:  38; 6HR MAX TEMP:  45;

ELY            CLOUDY    41  21  45 W7        29.89R
HIBBING        CLOUDY    37  24  59 SW5       29.94R
EVELETH        CLOUDY    39  20  46 W7        29.94S
DULUTH HARBOR  PTCLDY    46  30  53 SW12      29.98R
TWO HARBORS    CLOUDY    43  28  56 SW6       29.92R
SILVER BAY     CLOUDY    43  25  49 SW3       29.90R
GRAND MARAIS     N/A     44  31  60 W7        29.85R
G MARAIS ARPRT CLOUDY    41  16  36 W5        29.84R
$$
MNZ029>031-032-039>041-046>048-054>057-064-191300-
   West Central Minnesota

CITY           SKY/WX    TMP DP  RH WIND       PRES   REMARKS
FERGUS FALLS   CLOUDY    43  32  65 SE9       29.96F
WHEATON        CLOUDY    37  32  81 SE7       29.96F
MORRIS         CLOUDY    37  34  87 SE8       29.97F
ALEXANDRIA     CLOUDY    39  32  76 SW6       29.99S
ELBOW LAKE     FAIR      40  32  73 CALM      29.97S
WADENA         CLOUDY    34  28  80 CALM      29.96F
GLENWOOD       CLOUDY    37  32  81 S6        30.00S
APPLETON       CLOUDY    37  34  87 SE3       29.98S
BENSON         CLOUDY    36  30  80 CALM      30.01S
ORTONVILLE     CLOUDY    39  32  75 NE6       29.96F
MADISON        CLOUDY    45  34  65 S6        29.98F
WILLMAR        FAIR      36  34  93 E5        30.02S
$$
MNZ033>034-036-042>043-049>051-058-059-191300-
   Central Minnesota

CITY           SKY/WX    TMP DP  RH WIND       PRES   REMARKS
ST CLOUD       CLOUDY    35  32  88 CALM      30.01F
6HR MIN TEMP:  34; 6HR MAX TEMP:  45;

SAUK CENTRE    FAIR      34  31  88 CALM      30.00S
PAYNESVILLE    CLOUDY    37  34  90 CALM      30.02S
AITKIN         CLOUDY    34  27  75 CALM      29.97R
PINE RIVER     CLOUDY    30  27  86 CALM      30.00S
BRAINERD       CLOUDY    36  29  75 SW7       29.99R
STAPLES        CLOUDY    36  28  75 CALM      29.98F
LONG PRAIRIE   FAIR      34  32  93 CALM      30.00S
LITTLE FALLS   CLOUDY    36  28  75 CALM      30.01S
LITCHFIELD     CLOUDY    39  36  87 CALM      30.03S
BUFFALO        CLOUDY    37  32  85 CALM      30.04F
MAPLE LAKE     CLOUDY    38  35  91 CALM      30.03F
HUTCHINSON     CLOUDY    36  34  92 CALM      30.04S
$$
MNZ037-044-045-052-053-191300-
   East Central Minnesota

CITY           SKY/WX    TMP DP  RH WIND       PRES   REMARKS
PRINCETON      CLOUDY    37  32  81 CALM      30.03S
MORA           CLOUDY    36  32  87 SW3       30.04R
CAMBRIDGE      CLOUDY    43  30  61 CALM      30.03S
RUSH CITY      CLOUDY    39  32  75 SW3       30.03R
MOOSE LAKE     CLOUDY    34  30  86 CALM      29.97S
HINCKLEY       FAIR      32  32 100 SW3       30.01R
CLOQUET        CLOUDY    43  23  45 SW6       29.97R
MCGREGOR       PTCLDY    41  30  65 SW5       29.98S
$$
MNZ071>073-080-081-089-090-097-098-191300-
   Southwest Minnesota

CITY           SKY/WX    TMP DP  RH WIND       PRES   REMARKS
MONTEVIDEO     CLOUDY    43  30  61 SW7       30.00S
GRANITE FALLS  CLOUDY    41  34  76 S10       30.02F
CANBY          CLOUDY    49  30  48 S8        30.00F
MARSHALL       CLOUDY    46  30  53 S6        30.02S
REDWOOD FALLS  CLOUDY    40  32  73 S8        30.03S
OLIVIA         CLOUDY    39  34  81 S7        30.01S
PIPESTONE      CLOUDY    46  27  46 S6        30.03S
WORTHINGTON    CLOUDY    43  31  62 CALM      30.06S
JACKSON        CLOUDY    39  32  75 S7        30.07S
TRACY          CLOUDY    50  31  49 S13       30.03F
SLAYTON        CLOUDY    43  26  51 S8        30.05F
$$
MNZ065>067-074>077-082>085-091>093-191300-
   South Central Minnesota

CITY           SKY/WX    TMP DP  RH WIND       PRES   REMARKS
MANKATO        CLOUDY    41  32  70 S5        30.07R
NEW ULM          N/A     37  30  75 S6        30.04S
ST JAMES       CLOUDY    39  34  81 SE6       30.07S
FAIRMONT       CLOUDY    36  32  85 S6        30.08R
GLENCOE        CLOUDY    38  34  84 SE5       30.03S
FARIBAULT      CLOUDY    36  34  93 CALM      30.06S
OWATONNA       CLOUDY    37  34  87 SE6       30.07R
WASECA         PTCLDY    36  32  87 CALM      30.08R
$$
MNZ078>079-086>088-094>096-191300-
   Southeast Minnesota

CITY           SKY/WX    TMP DP  RH WIND       PRES   REMARKS
ROCHESTER      CLOUDY    38  33  82 S7        30.09R
6HR MIN TEMP:  37; 6HR MAX TEMP:  47;

RED WING       CLOUDY    37  32  81 CALM      30.06R
STANTON        CLOUDY    37  33  83 CALM      30.05S
DODGE CENTER   CLOUDY    37  30  75 CALM      30.08R
WINONA         CLOUDY    37  36  93 CALM      30.09R
AUSTIN         CLOUDY    39  32  75 S5        30.09R
PRESTON        CLOUDY    42  29  60 SW6       30.10R
$$
ABBREVIATIONS USED IN REMARKS
   TC - TEMPERATURES IN CELSIUS
  WCI - WIND CHILL INDEX
   HX - HEAT INDEX
  VSB - VISIBILITY
$$




USA.gov is the U.S. government's official web portal to all federal, state and local government web resources and services.